Location: Club d'Astronomie Sirius du Saguenay
(48.5448°N, 71.1471°W)
Time: 07:14:49

OTV 5 (USA 277) - Visible Passes

Search period start: 23 March 2018 00:00
Search period end: 02 April 2018 00:00
Orbit: 404 x 417 km, 43.0° (Epoch: 07 September)

Date Brightness Start Highest point End Pass type
(mag) Time Alt. Az. Time Alt. Az. Time Alt. Az.
23 Mar ? 20:59:19 10° WSW 21:01:30 17° SSW 21:01:30 17° SSW visible
24 Mar ? 20:08:04 10° WSW 20:10:41 21° SSW 20:12:53 12° SSE visible
26 Mar ? 20:03:48 10° WSW 20:05:29 13° SSW 20:07:10 10° S visible
